Change the Weather History Date:

Sunday, March 16, 2014

  Actual Average Record
Temperature  
Mean Temperature 30 °F -  
Max Temperature 34 °F 50 °F 79 °F (1945)
Min Temperature 26 °F 27 °F 9 °F (1970)
Degree Days  
Heating Degree Days 36    
Moisture  
Dew Point 16 °F    
Average Humidity 60    
Maximum Humidity 76    
Minimum Humidity 41    
Precipitation  
Precipitation 0.00 in - - ()
Sea Level Pressure  
Sea Level Pressure 30.15 in    
Wind  
Wind Speed 11 mph (NE)    
Max Wind Speed 20 mph    
Max Gust Speed 26 mph    
Visibility 10 miles    
Events      
Averages and records for this station are not official NWS values.
T = Trace of Precipitation, MM = Missing Value Source: NWS Daily Summary

Daily Weather History Graph

Daily Weather History Graph

Search for Another Location

Airport or City:

Trip Planner

Search our weather history database for the weather conditions in past years. The results will help you decide how hot, cold, wet, or windy it might be!

Date:

Astronomy

Mar. 16, 2014 Rise Set
Actual Time 7:40 AM EDT 7:38 PM EDT
Civil Twilight 7:13 AM EDT 8:05 PM EDT
Nautical Twilight 6:42 AM EDT 8:36 PM EDT
Astronomical Twilight 6:10 AM EDT 9:08 PM EDT
Moon 7:54 PM EDT (3/16) 7:23 AM EDT (3/16)
Length of Visible Light 12h 51m
Length of Day
11h 58m
Full, 100% of the Moon is Illuminated
Mar 16
Full
Mar 16
Full
Mar 23
Last Quarter
Mar 30
New
Apr 7
First Quarter

Hourly Weather History & Observations

Time (EDT) Temp. Windchill Dew Point Humidity Pressure Visibility Wind Dir Wind Speed Gust Speed Precip Events Conditions
12:53 AM 33.1 °F 28.7 °F 26.1 °F 75% 30.15 in 10.0 mi NNE 4.6 mph - N/A   Clear
1:53 AM 33.1 °F 26.9 °F 26.1 °F 75% 30.15 in 10.0 mi NNE 6.9 mph - N/A   Clear
2:53 AM 33.1 °F 26.1 °F 24.1 °F 70% 30.16 in 10.0 mi NE 8.1 mph - N/A   Clear
3:53 AM 30.9 °F 22.8 °F 24.1 °F 76% 30.15 in 10.0 mi NNE 9.2 mph - N/A   Clear
4:53 AM 30.9 °F 21.7 °F 21.0 °F 67% 30.17 in 10.0 mi NE 11.5 mph - N/A   Clear
5:53 AM 28.9 °F 20.4 °F 21.0 °F 72% 30.18 in 10.0 mi NE 9.2 mph - N/A   Clear
6:53 AM 28.9 °F 20.4 °F 21.9 °F 75% 30.17 in 10.0 mi NE 9.2 mph - N/A   Clear
7:26 AM 28.0 °F 17.5 °F 21.0 °F 75% 30.16 in 10.0 mi NE 12.7 mph - N/A   Mostly Cloudy
7:53 AM 28.0 °F 17.5 °F 21.0 °F 75% 30.19 in 10.0 mi NE 12.7 mph - N/A   Overcast
8:53 AM 28.0 °F 15.7 °F 19.9 °F 72% 30.21 in 10.0 mi NE 17.3 mph 23.0 mph N/A   Overcast
9:16 AM 28.0 °F 16.1 °F 19.0 °F 69% 30.18 in 10.0 mi NE 16.1 mph - N/A   Scattered Clouds
9:53 AM 28.0 °F 17.0 °F 19.0 °F 69% 30.23 in 10.0 mi ENE 13.8 mph 21.9 mph N/A   Partly Cloudy
10:53 AM 28.0 °F 16.1 °F 17.1 °F 63% 30.24 in 10.0 mi NE 16.1 mph - N/A   Clear
11:53 AM 28.9 °F 18.2 °F 14.0 °F 54% 30.23 in 10.0 mi NE 13.8 mph - N/A   Partly Cloudy
12:53 PM 28.9 °F 16.9 °F 12.9 °F 51% 30.22 in 10.0 mi NE 17.3 mph 23.0 mph N/A   Mostly Cloudy
1:53 PM 30.0 °F 18.7 °F 12.0 °F 47% 30.21 in 10.0 mi ENE 16.1 mph 25.3 mph N/A   Clear
2:53 PM 30.0 °F 19.1 °F 12.0 °F 47% 30.17 in 10.0 mi ENE 15.0 mph 26.5 mph N/A   Mostly Cloudy
3:53 PM 30.0 °F 17.5 °F 10.0 °F 43% 30.14 in 10.0 mi NE 19.6 mph - N/A   Overcast
4:53 PM 28.9 °F 16.9 °F 8.1 °F 41% 30.12 in 10.0 mi ENE 17.3 mph 25.3 mph N/A   Overcast
5:53 PM 28.9 °F 17.7 °F 10.0 °F 45% 30.10 in 10.0 mi NE 15.0 mph - N/A   Overcast
6:53 PM 28.0 °F 15.3 °F 8.1 °F 43% 30.08 in 10.0 mi NE 18.4 mph 25.3 mph N/A   Overcast
7:53 PM 27.0 °F 15.6 °F 9.0 °F 47% 30.08 in 10.0 mi NE 13.8 mph - N/A   Overcast
8:53 PM 27.0 °F 15.6 °F 10.9 °F 51% 30.06 in 10.0 mi NNE 13.8 mph - N/A   Overcast
9:53 PM 27.0 °F 15.2 °F 10.9 °F 51% 30.06 in 10.0 mi ENE 15.0 mph 21.9 mph N/A   Overcast
10:53 PM 26.1 °F 13.1 °F 10.9 °F 53% 30.07 in 10.0 mi NE 17.3 mph - N/A   Overcast
11:53 PM 26.1 °F 14.0 °F 10.0 °F 51% 30.05 in 10.0 mi NE 15.0 mph - N/A   Overcast